FIN5Z EFHK-EFKT

Flight info

Callsign FIN5Z
Flight time 1h 9m
Altitude 36000
Route TEVRU Y75 EVIMI
Aircraft A321/M-SDE1E2E3FGHIJ1M1RWXYZ/LB1

Departure

Time 2026-04-25 12:59
Airport Helsinki Vantaa Airport (EFHK)

Arrival

Time 2026-04-25 14:09
Airport Kittilä International Airport (EFKT)
Time Latitude Longitude Altitude Speed Heading
2026-04-25 12:35 60.31945 24.96680 167 ft 0 kts 137°
2026-04-25 12:51 60.31946 24.96678 167 ft 1 kts 137°
2026-04-25 12:52 60.31958 24.96654 167 ft 3 kts 122°
2026-04-25 12:52 60.31966 24.96619 167 ft 3 kts 97°
2026-04-25 12:52 60.31966 24.96581 167 ft 3 kts 71°
2026-04-25 12:52 60.31959 24.96553 167 ft 1 kts 48°
2026-04-25 12:53 60.31958 24.96551 167 ft 0 kts 47°
2026-04-25 12:54 60.31961 24.96557 167 ft 2 kts 47°
2026-04-25 12:54 60.31974 24.96585 167 ft 4 kts 47°
2026-04-25 12:55 60.31996 24.96634 158 ft 6 kts 47°
2026-04-25 12:55 60.32016 24.96676 167 ft 7 kts 47°
2026-04-25 12:55 60.32067 24.96789 167 ft 10 kts 47°
2026-04-25 12:55 60.32133 24.96861 166 ft 12 kts 347°
2026-04-25 12:56 60.32216 24.96757 166 ft 16 kts 325°
2026-04-25 12:56 60.32324 24.96633 170 ft 21 kts 331°
2026-04-25 12:56 60.32474 24.96464 174 ft 34 kts 332°
2026-04-25 12:56 60.32687 24.96216 172 ft 36 kts 330°
2026-04-25 12:57 60.32860 24.96014 174 ft 27 kts 329°
2026-04-25 12:57 60.33019 24.95829 181 ft 25 kts 330°
2026-04-25 12:57 60.33158 24.95608 181 ft 26 kts 317°
2026-04-25 12:57 60.33183 24.95339 180 ft 21 kts 232°
2026-04-25 12:58 60.33103 24.95078 178 ft 22 kts 260°
2026-04-25 12:58 60.33112 24.94780 181 ft 21 kts 274°
2026-04-25 12:58 60.33120 24.94515 189 ft 17 kts 273°
2026-04-25 12:58 60.33080 24.94310 197 ft 17 kts 229°
2026-04-25 12:59 60.32978 24.94091 195 ft 40 kts 226°
2026-04-25 12:59 60.32616 24.93295 180 ft 110 kts 227°
2026-04-25 12:59 60.31974 24.91886 218 ft 159 kts 224°
2026-04-25 12:59 60.31256 24.90298 1051 ft 147 kts 230°
2026-04-25 13:00 60.30574 24.88689 1679 ft 158 kts 240°
2026-04-25 13:00 60.30266 24.87311 1890 ft 169 kts 256°
2026-04-25 13:00 60.30369 24.83929 2129 ft 200 kts 290°
2026-04-25 13:00 60.30958 24.81231 2329 ft 226 kts 292°
2026-04-25 13:01 60.31622 24.78211 2878 ft 240 kts 292°
2026-04-25 13:01 60.32377 24.75158 3701 ft 244 kts 296°
2026-04-25 13:01 60.33205 24.72130 4540 ft 248 kts 298°
2026-04-25 13:01 60.34191 24.69251 5388 ft 254 kts 314°
2026-04-25 13:02 60.35710 24.67378 6176 ft 263 kts 340°
2026-04-25 13:02 60.37558 24.67137 6936 ft 273 kts
2026-04-25 13:02 60.39433 24.67753 7732 ft 277 kts
2026-04-25 13:02 60.41349 24.68418 8558 ft 281 kts
2026-04-25 13:03 60.43287 24.69100 9353 ft 284 kts
2026-04-25 13:03 60.45295 24.69796 9758 ft 303 kts
2026-04-25 13:03 60.47463 24.70534 9955 ft 326 kts
2026-04-25 13:03 60.49752 24.71311 10354 ft 340 kts
2026-04-25 13:04 60.52081 24.72105 10983 ft 346 kts
2026-04-25 13:04 60.54481 24.72929 11655 ft 351 kts
2026-04-25 13:04 60.56906 24.73764 12333 ft 356 kts
2026-04-25 13:04 60.59364 24.74610 13003 ft 361 kts
2026-04-25 13:05 60.61855 24.75466 13603 ft 365 kts
2026-04-25 13:05 60.64381 24.76334 14229 ft 370 kts
2026-04-25 13:05 60.66904 24.77204 14851 ft 374 kts
2026-04-25 13:05 60.69488 24.78097 15485 ft 378 kts
2026-04-25 13:06 60.72103 24.78997 16118 ft 382 kts
2026-04-25 13:06 60.74733 24.79903 16747 ft 386 kts
2026-04-25 13:06 60.77407 24.80824 17373 ft 390 kts
2026-04-25 13:06 60.80103 24.81757 17948 ft 395 kts
2026-04-25 13:07 60.82827 24.82687 18467 ft 399 kts
2026-04-25 13:07 60.85560 24.83469 18993 ft 402 kts
2026-04-25 13:07 60.88387 24.84145 19534 ft 406 kts
2026-04-25 13:07 60.91177 24.84745 20070 ft 410 kts
2026-04-25 13:08 60.94037 24.85346 20605 ft 414 kts
2026-04-25 13:08 60.96922 24.85973 21130 ft 419 kts
2026-04-25 13:08 60.99846 24.86638 21658 ft 423 kts
2026-04-25 13:08 61.02781 24.87328 22163 ft 427 kts
2026-04-25 13:09 61.05688 24.88025 22646 ft 431 kts
2026-04-25 13:09 61.08702 24.88751 23099 ft 434 kts
2026-04-25 13:09 61.11712 24.89474 23526 ft 437 kts
2026-04-25 13:09 61.14734 24.90205 23965 ft 439 kts
2026-04-25 13:10 61.17774 24.90944 24406 ft 440 kts
2026-04-25 13:10 61.20822 24.91684 24837 ft 442 kts
2026-04-25 13:10 61.23890 24.92426 25254 ft 444 kts
2026-04-25 13:10 61.26972 24.93167 25662 ft 446 kts
2026-04-25 13:11 61.30067 24.93909 26069 ft 448 kts
2026-04-25 13:11 61.33181 24.94659 26466 ft 451 kts
2026-04-25 13:11 61.36267 24.95407 26853 ft 453 kts
2026-04-25 13:11 61.39403 24.96171 27232 ft 455 kts
2026-04-25 13:12 61.42555 24.96941 27608 ft 457 kts
2026-04-25 13:12 61.45706 24.97711 27970 ft 459 kts
2026-04-25 13:12 61.48905 24.98490 28314 ft 461 kts
2026-04-25 13:12 61.51027 24.99009 28544 ft 462 kts
2026-04-25 13:13 61.55322 25.00069 29026 ft 465 kts
2026-04-25 13:13 61.58512 25.00858 29363 ft 467 kts
2026-04-25 13:13 61.61758 25.01549 29641 ft 467 kts 359°
2026-04-25 13:13 61.65020 25.01706 29912 ft 468 kts 357°
2026-04-25 13:14 61.68277 25.01829 30284 ft 467 kts 357°
2026-04-25 13:14 61.71523 25.01949 30665 ft 466 kts 357°
2026-04-25 13:14 61.74759 25.02065 31031 ft 465 kts 357°
2026-04-25 13:14 61.77949 25.02180 31389 ft 464 kts 358°
2026-04-25 13:15 61.81199 25.02298 31746 ft 463 kts 358°
2026-04-25 13:15 61.84426 25.02416 32097 ft 463 kts 358°
2026-04-25 13:15 61.87647 25.02534 32439 ft 462 kts 358°
2026-04-25 13:15 61.90820 25.02653 32797 ft 461 kts 358°
2026-04-25 13:16 61.94026 25.02781 33144 ft 461 kts 358°
2026-04-25 13:16 61.97230 25.02912 33451 ft 460 kts 358°
2026-04-25 13:16 62.00437 25.03035 33711 ft 460 kts 358°
2026-04-25 13:16 62.03635 25.03154 33962 ft 460 kts 358°
2026-04-25 13:17 62.06834 25.03273 34208 ft 460 kts 358°
2026-04-25 13:17 62.10041 25.03397 34450 ft 460 kts 358°
2026-04-25 13:17 62.13244 25.03525 34691 ft 460 kts 358°
2026-04-25 13:17 62.16447 25.03652 34939 ft 460 kts 358°
2026-04-25 13:18 62.19616 25.03777 35161 ft 460 kts 358°
2026-04-25 13:18 62.22824 25.03901 35307 ft 461 kts 358°
2026-04-25 13:18 62.29241 25.04141 35346 ft 460 kts 358°
2026-04-25 13:19 62.35645 25.04383 35353 ft 459 kts 358°
2026-04-25 13:19 62.39888 25.04550 35358 ft 459 kts 358°
2026-04-25 13:20 62.48390 25.04877 35367 ft 459 kts 358°
2026-04-25 13:20 62.54817 25.05141 35385 ft 460 kts 358°
2026-04-25 13:21 62.61183 25.05391 35406 ft 460 kts 358°
2026-04-25 13:21 62.67597 25.05643 35420 ft 461 kts 358°
2026-04-25 13:22 62.74026 25.05909 35434 ft 461 kts 358°
2026-04-25 13:23 62.83614 25.06253 35446 ft 461 kts 358°
2026-04-25 13:23 62.90049 25.06517 35454 ft 461 kts 359°
2026-04-25 13:24 62.96479 25.06785 35458 ft 461 kts 359°
2026-04-25 13:24 63.02858 25.07032 35469 ft 461 kts 358°
2026-04-25 13:25 63.09277 25.07284 35475 ft 461 kts 358°
2026-04-25 13:25 63.15707 25.07550 35484 ft 461 kts 359°
2026-04-25 13:26 63.22089 25.07814 35485 ft 461 kts 359°
2026-04-25 13:26 63.28511 25.08071 35487 ft 461 kts 359°
2026-04-25 13:27 63.34934 25.08335 35492 ft 461 kts 359°
2026-04-25 13:27 63.41365 25.08600 35492 ft 461 kts 359°
2026-04-25 13:28 63.47734 25.08860 35494 ft 461 kts 359°
2026-04-25 13:28 63.54166 25.09133 35498 ft 461 kts 359°
2026-04-25 13:29 63.60547 25.09394 35500 ft 461 kts 359°
2026-04-25 13:29 63.66967 25.09655 35501 ft 461 kts 359°
2026-04-25 13:30 63.76607 25.10056 35505 ft 461 kts 359°
2026-04-25 13:31 63.86231 25.10443 35506 ft 461 kts 359°
2026-04-25 13:31 63.92602 25.10725 35511 ft 461 kts 359°
2026-04-25 13:32 63.99029 25.10999 35518 ft 461 kts 359°
2026-04-25 13:32 64.05448 25.11271 35520 ft 461 kts 359°
2026-04-25 13:33 64.11832 25.11545 35522 ft 461 kts 359°
2026-04-25 13:33 64.18264 25.11815 35528 ft 461 kts 359°
2026-04-25 13:34 64.24682 25.12086 35534 ft 460 kts 359°
2026-04-25 13:34 64.31059 25.12356 35535 ft 460 kts 359°
2026-04-25 13:35 64.37462 25.12634 35532 ft 460 kts 359°
2026-04-25 13:35 64.43841 25.12909 35537 ft 460 kts 359°
2026-04-25 13:36 64.50251 25.13003 35546 ft 459 kts 358°
2026-04-25 13:36 64.56612 25.12926 35557 ft 459 kts 358°
2026-04-25 13:37 64.62995 25.12851 35550 ft 459 kts 358°
2026-04-25 13:37 64.69394 25.12856 35552 ft 459 kts 358°
2026-04-25 13:38 64.75788 25.12897 35562 ft 459 kts 358°
2026-04-25 13:38 64.82170 25.12924 35565 ft 458 kts 358°
2026-04-25 13:39 64.88516 25.12918 35562 ft 458 kts 358°
2026-04-25 13:39 64.94904 25.12902 35556 ft 458 kts 358°
2026-04-25 13:40 65.01282 25.12903 35560 ft 458 kts 358°
2026-04-25 13:40 65.07661 25.12919 35557 ft 458 kts 358°
2026-04-25 13:41 65.14039 25.12934 35568 ft 458 kts 358°
2026-04-25 13:41 65.20380 25.12893 35570 ft 458 kts 358°
2026-04-25 13:42 65.26764 25.12844 35575 ft 458 kts 358°
2026-04-25 13:42 65.32054 25.12826 35574 ft 458 kts 358°
2026-04-25 13:43 65.38454 25.12804 35575 ft 458 kts 358°
2026-04-25 13:43 65.44826 25.12778 35575 ft 458 kts 358°
2026-04-25 13:44 65.51161 25.12743 35576 ft 458 kts 358°
2026-04-25 13:44 65.57528 25.12710 35577 ft 458 kts 358°
2026-04-25 13:45 65.62868 25.12691 35579 ft 457 kts 358°
2026-04-25 13:45 65.70282 25.12642 35532 ft 458 kts 358°
2026-04-25 13:45 65.73458 25.12621 35109 ft 458 kts 358°
2026-04-25 13:46 65.76661 25.12600 34446 ft 460 kts 358°
2026-04-25 13:46 65.79878 25.12578 33755 ft 463 kts 358°
2026-04-25 13:46 65.83054 25.12558 33192 ft 461 kts 358°
2026-04-25 13:46 65.86254 25.12545 32653 ft 458 kts 358°
2026-04-25 13:47 65.89427 25.12534 32151 ft 454 kts 358°
2026-04-25 13:47 65.92581 25.12517 31640 ft 451 kts 358°
2026-04-25 13:47 65.95722 25.12499 31122 ft 449 kts 358°
2026-04-25 13:47 65.98798 25.12485 30622 ft 446 kts 358°
2026-04-25 13:48 66.01895 25.12474 30109 ft 443 kts 358°
2026-04-25 13:48 66.04976 25.12461 29596 ft 440 kts 358°
2026-04-25 13:48 66.08029 25.12442 29033 ft 436 kts 358°
2026-04-25 13:48 66.11030 25.12406 28557 ft 430 kts 357°
2026-04-25 13:49 66.14002 25.12165 28065 ft 423 kts 355°
2026-04-25 13:49 66.16924 25.11710 27587 ft 418 kts 353°
2026-04-25 13:49 66.19771 25.11148 27136 ft 412 kts 353°
2026-04-25 13:49 66.22625 25.10541 26675 ft 407 kts 353°
2026-04-25 13:50 66.25434 25.09948 26253 ft 402 kts 353°
2026-04-25 13:50 66.28201 25.09398 25821 ft 397 kts 354°
2026-04-25 13:50 66.30943 25.08890 25393 ft 392 kts 354°
2026-04-25 13:50 66.33654 25.08415 24976 ft 388 kts 354°
2026-04-25 13:51 66.36307 25.07959 24577 ft 385 kts 354°
2026-04-25 13:51 66.38973 25.07503 24168 ft 382 kts 354°
2026-04-25 13:51 66.41610 25.07047 23765 ft 379 kts 354°
2026-04-25 13:51 66.44237 25.06591 23365 ft 377 kts 354°
2026-04-25 13:52 66.46848 25.06134 22909 ft 375 kts 353°
2026-04-25 13:52 66.49451 25.05678 22417 ft 372 kts 353°
2026-04-25 13:52 66.52027 25.05215 21932 ft 370 kts 353°
2026-04-25 13:52 66.54557 25.04753 21462 ft 367 kts 353°
2026-04-25 13:53 66.57101 25.04294 20990 ft 365 kts 353°
2026-04-25 13:53 66.59624 25.03841 20518 ft 362 kts 353°
2026-04-25 13:53 66.62134 25.03389 20075 ft 359 kts 353°
2026-04-25 13:53 66.64624 25.02937 19632 ft 356 kts 353°
2026-04-25 13:54 66.67055 25.02492 19193 ft 352 kts 353°
2026-04-25 13:54 66.69491 25.02049 18759 ft 349 kts 353°
2026-04-25 13:54 66.71909 25.01608 18333 ft 346 kts 353°
2026-04-25 13:54 66.74301 25.01173 17906 ft 343 kts 353°
2026-04-25 13:55 66.76669 25.00744 17420 ft 340 kts 354°
2026-04-25 13:55 66.79021 25.00317 16934 ft 337 kts 354°
2026-04-25 13:55 66.81350 24.99891 16456 ft 334 kts 354°
2026-04-25 13:55 66.83655 24.99462 15987 ft 330 kts 354°
2026-04-25 13:56 66.85938 24.99033 15523 ft 327 kts 354°
2026-04-25 13:56 66.88198 24.98612 15063 ft 324 kts 355°
2026-04-25 13:56 66.90407 24.98202 14613 ft 320 kts 355°
2026-04-25 13:56 66.92618 24.97796 14170 ft 317 kts 355°
2026-04-25 13:57 66.94808 24.97396 13730 ft 314 kts 355°
2026-04-25 13:57 66.96250 24.97135 13430 ft 312 kts 356°
2026-04-25 13:57 66.99123 24.96611 12814 ft 307 kts 355°
2026-04-25 13:57 67.01236 24.96211 12472 ft 300 kts 355°
2026-04-25 13:58 67.03299 24.95826 12131 ft 295 kts 356°
2026-04-25 13:58 67.05329 24.95451 11790 ft 290 kts 355°
2026-04-25 13:58 67.07334 24.95080 11461 ft 287 kts 355°
2026-04-25 13:58 67.09295 24.94712 11135 ft 285 kts 355°
2026-04-25 13:59 67.11270 24.94342 10812 ft 284 kts 355°
2026-04-25 13:59 67.13242 24.93978 10491 ft 283 kts 355°
2026-04-25 13:59 67.15198 24.93615 10172 ft 281 kts 355°
2026-04-25 13:59 67.17151 24.93254 9858 ft 280 kts 355°
2026-04-25 14:00 67.18434 24.93013 9648 ft 279 kts 355°
2026-04-25 14:00 67.20998 24.92515 9202 ft 273 kts 355°
2026-04-25 14:00 67.22882 24.92148 8861 ft 269 kts 355°
2026-04-25 14:00 67.24745 24.92079 8524 ft 266 kts
2026-04-25 14:01 67.26567 24.92337 8066 ft 266 kts
2026-04-25 14:01 67.28413 24.92661 7644 ft 266 kts
2026-04-25 14:01 67.30264 24.93002 7204 ft 267 kts
2026-04-25 14:01 67.32099 24.93340 6776 ft 258 kts
2026-04-25 14:02 67.33865 24.93661 6351 ft 251 kts
2026-04-25 14:02 67.35580 24.93964 5928 ft 249 kts
2026-04-25 14:02 67.37309 24.94272 5482 ft 247 kts
2026-04-25 14:02 67.37889 24.94375 5335 ft 247 kts
2026-04-25 14:03 67.40719 24.94877 4615 ft 245 kts
2026-04-25 14:03 67.42429 24.95171 4190 ft 247 kts
2026-04-25 14:03 67.44157 24.95476 3818 ft 247 kts
2026-04-25 14:03 67.45813 24.95772 3790 ft 236 kts
2026-04-25 14:04 67.47403 24.96057 3785 ft 223 kts
2026-04-25 14:04 67.48944 24.96330 3789 ft 222 kts
2026-04-25 14:04 67.50491 24.96602 3781 ft 221 kts
2026-04-25 14:04 67.52024 24.96382 3787 ft 222 kts 347°
2026-04-25 14:05 67.53491 24.95427 3783 ft 212 kts 346°
2026-04-25 14:05 67.54825 24.94559 3788 ft 193 kts 346°
2026-04-25 14:05 67.56084 24.93749 3745 ft 178 kts 347°
2026-04-25 14:05 67.57264 24.92990 3513 ft 172 kts 347°
2026-04-25 14:06 67.58414 24.92251 3255 ft 170 kts 346°
2026-04-25 14:06 67.59564 24.91510 2988 ft 169 kts 347°
2026-04-25 14:06 67.60673 24.90794 2729 ft 156 kts 347°
2026-04-25 14:06 67.61691 24.90137 2487 ft 146 kts 347°
2026-04-25 14:07 67.62653 24.89515 2254 ft 139 kts 347°
2026-04-25 14:07 67.63587 24.88912 2032 ft 137 kts 347°
2026-04-25 14:07 67.64505 24.88318 1809 ft 135 kts 347°
2026-04-25 14:07 67.65410 24.87732 1556 ft 135 kts 347°
2026-04-25 14:08 67.66324 24.87140 1320 ft 135 kts 347°
2026-04-25 14:08 67.67241 24.86545 1099 ft 135 kts 346°
2026-04-25 14:08 67.68154 24.85964 919 ft 135 kts 347°
2026-04-25 14:08 67.69065 24.85349 687 ft 135 kts 347°
2026-04-25 14:09 67.69925 24.84798 642 ft 112 kts 346°
2026-04-25 14:09 67.70413 24.84492 643 ft 29 kts 346°
2026-04-25 14:09 67.70531 24.84413 640 ft 19 kts 346°
2026-04-25 14:09 67.70577 24.84383 640 ft 21 kts 346°
2026-04-25 14:10 67.70732 24.84518 641 ft 19 kts 72°
2026-04-25 14:10 67.70690 24.84788 638 ft 13 kts 164°
2026-04-25 14:10 67.70594 24.84852 641 ft 17 kts 166°
2026-04-25 14:10 67.70445 24.84941 639 ft 27 kts 167°
2026-04-25 14:11 67.70239 24.85072 643 ft 32 kts 167°
2026-04-25 14:11 67.70020 24.85206 640 ft 33 kts 166°
2026-04-25 14:11 67.69804 24.85344 642 ft 29 kts 167°
2026-04-25 14:11 67.69614 24.85459 642 ft 26 kts 167°
2026-04-25 14:12 67.69531 24.85527 642 ft 9 kts 140°
2026-04-25 14:12 67.69494 24.85671 640 ft 7 kts 122°
2026-04-25 14:12 67.69485 24.85710 644 ft 3 kts 122°
2026-04-25 14:12 67.69482 24.85724 642 ft 0 kts 122°